User: anonymous   Login
Location: Unspecified
(0.0000°N, 0.0000°E)
Time: 09:24:34
(UTC+00:00)
Language:

YAOGAN 2 - Orbit

View from above orbital plane
View from above orbital plane
View from above satellite
View from above satellite

Ground track
Ground track

The orbit data is extracted from the following two-line orbital elements,

1 31490U 07019A   18019.19046340 -.00000034  00000-0  27267-5 0  9997
2 31490  98.0578 135.2973 0021900  57.6747 302.6579 14.76821699573891
Epoch (UTC): 19 January 2018 04:34:16
Eccentricity: 0.0021900
inclination: 98.0578°
perigee height: 624 km
apogee height: 655 km
right ascension of ascending node: 135.2973°
argument of perigee: 57.6747°
revolutions per day: 14.76821699
mean anomaly at epoch: 302.6579°
orbit number at epoch: 57389

The dashed part of the orbit path shows where the satellite is in the earth's shadow,  

DLR